Powrót do katalogu

HULIANWANG DIGUI-179

AktywnyNaukaLEO
NORAD 100204·PAYLOAD·🇨🇳 China

Wystrzelony Aug 4, 2026 z Wenchang Space Launch Site

Loading…

Następne Przeloty (najbliższe 24 godziny)

TLE

ŚwieżeSource: Space-Track

Epoka: Sep 14, 2026, 13:07 UTC

1 A0204U 26176B   26257.54685287 -.00000092  00000-0  68943-4 0  9991
2 A0204  49.9850 245.5096 0000257 353.5622   6.5247 13.29327760  5508

Śledź HULIANWANG DIGUI-179 w czasie rzeczywistym z AllMySat

Download on the App Store